Location: Tuttlingen
(47.9853°N, 8.8165°E)
Time: 00:05:49
(UTC+01:00)

ISS - Pass Details

Date: 07 January 2018
Orbit: 402 x 407 km, 51.6° (Epoch: 20 January)

Event Time Altitude Azimuth Distance (km) Brightness Sun altitude
Exits shadow 07:29:10 10° 294° (WNW) 1,492 -1.7 -7.3°
Reaches altitude 10° 07:29:13 10° 295° (WNW) 1,469 -1.7 -7.3°
Maximum altitude 07:32:30 67° 18° (NNE) 445 -3.7 -6.8°
Drops below altitude 10° 07:35:47 10° 102° (ESE) 1,467 0.6 -6.3°
Sets 07:37:53 0° 105° (ESE) 2,327 2.1 -6.0°
